Location: Biltmore Gardens
(41.6070°N, 83.4666°W)
Time: 14:20:27
(UTC+00:00)

COSMOS 2441 - Pass Details

Date: 14 July 2020
Orbit: 707 x 732 km, 98.0° (Epoch: 04 August)

Event Time Altitude Azimuth Distance (km) Brightness Sun altitude
Rises 09:27:24 0° 10° (N) 3,122 8.5 -7.8°
Reaches altitude 10° 09:29:41 10° 8° (N) 2,195 7.6 -7.5°
Maximum altitude 09:34:27 68° 286° (WNW) 766 4.4 -6.7°
Drops below altitude 10° 09:39:11 10° 204° (SSW) 2,172 6.3 -6.0°
Enters shadow 09:40:56 - 202° (SSW) 2,885 7.0 -5.8°
